Location: Unspecified
(0.0000°N, 0.0000°E)
Time: 13:24:25
(UTC+00:00)

Kosmos-1333 - Pass Details

Date: 23 May 2026
Orbit: 964 x 1010 km, 82.9° (Epoch: 5 June)

Event Time Altitude Azimuth Distance (km) Brightness Sun altitude
Exits shadow 20:38:55 42° 272° (W) 1,378 8.0 -37.4°
Maximum altitude 20:38:58 42° 273° (W) 1,378 8.0 -37.4°
Drops below altitude 10° 20:44:54 10° 342° (NNW) 2,760 9.8 -38.8°
Sets 20:47:34 0° 349° (N) 3,712 10.5 -39.4°
